Flag for Brazil Weather past 2 weeks in Recife, Pernambuco, Brazil

Now
86 °F

Partly sunny.


Feels Like: 97 °F
Forecast: 80 / 87 °F
Wind: 9 mph from Southeast

Location: Recife Aeroporto

Current Time: Mar 1, 2015 at 2:30:59 PM

Latest Report: Mar 1, 2015 at 2:00 PM


Visibility: N/A

Pressure: 29.86 "Hg

Humidity: 75%

Dew point: 77 °F

Location of RecifeLocation

Historic Weather in Recife — Graph

°F

Recife temperature yesterday

Maximum temperature yesterday: 88 °F (at 11:00 AM)
Minimum temperature yesterday: 75 °F (at 4:00 AM)
Average temperature yesterday: 82 °F

Past Weeks' High & Low Weather Summary

 TemperatureHumidityPressure
High90 °F (Feb 14, 1:00 PM)94% (Feb 17, 5:00 PM)30.01 "Hg (Feb 17, 5:00 PM)
Low75 °F (Feb 20, 5:00 AM)55% (Feb 14, 1:00 PM)29.80 "Hg (Feb 22, 3:00 PM)
Average82 °F76%29.89 "Hg
* Reported Feb 14 1:00 PM — Mar 1 1:00 PM, Recife, Weather by CustomWeather, © 2015

Note: Actual official high and low records may vary slightly from our data, if they occured in-between our weather recording intervals... More about our weather records

Advertising

Recife weather history for previous 24 hours

 ConditionsComfort  
Time TempWeatherWind HumidityBarometerVisibility
1:00 PM
Sun, Mar 1
88 °FScattered clouds.9 mph66%29.89 "HgN/A
12:00 PM84 °FScattered clouds.8 mph74%29.89 "HgN/A
11:00 AM88 °FScattered clouds.12 mph66%29.92 "HgN/A
10:00 AM86 °FScattered clouds.9 mph70%29.95 "HgN/A
9:00 AM86 °FBroken clouds.8 mph75%29.95 "HgN/A
8:00 AM84 °FScattered showers. Partly sunny.7 mph74%29.92 "HgN/A
7:00 AM79 °FScattered clouds.6 mph89%29.92 "HgN/A
6:00 AM77 °FScattered clouds.No wind94%29.89 "HgN/A
5:00 AM79 °FPassing clouds.No wind84%29.89 "HgN/A
4:00 AM81 °FPassing clouds.6 mph79%29.86 "HgN/A
3:00 AM79 °FPassing clouds.6 mph89%29.86 "HgN/A
2:00 AM81 °FPassing clouds.6 mph84%29.86 "HgN/A
1:00 AM81 °FPassing clouds.No wind84%29.89 "HgN/A
12:00 AM81 °FPassing clouds.6 mph84%29.89 "HgN/A
11:00 PM
Sat, Feb 28
81 °FPassing clouds.5 mph84%29.89 "HgN/A
10:00 PM81 °FPassing clouds.6 mph84%29.89 "HgN/A
9:00 PM81 °FPassing clouds.7 mph84%29.89 "HgN/A
8:00 PM81 °FPassing clouds.6 mph79%29.89 "HgN/A
7:00 PM82 °FClear.8 mph74%29.86 "Hg10 mi
6:00 PM82 °FClear.9 mph74%29.86 "Hg10 mi
5:00 PM86 °FSunny.9 mph66%29.83 "Hg10 mi
4:00 PM88 °FSunny.10 mph62%29.83 "Hg10 mi
3:00 PM88 °FScattered clouds.10 mph59%29.83 "HgN/A
2:00 PM86 °FPassing clouds.12 mph66%29.86 "HgN/A
Weather by CustomWeather, © 2015

See weather overviewHow to use our weather pages